{"data":{"norad_id":45441,"epoch":"2026-09-20T00:51:52.397568Z","epoch_age_seconds":54341,"freshness":"FRESH","line1":"1 45441U 20020T   26263.03602312  .00000599  00000+0  16552-2 0  9991","line2":"2 45441  87.8974   2.2085 0001912 102.6192 257.5149 13.11417399315094","mean_motion":13.11417399,"eccentricity":0.0001912,"inclination_deg":87.8974,"raan_deg":2.2085,"arg_perigee_deg":102.6192,"mean_anomaly_deg":257.5149,"bstar":0.0016552,"rev_number":31509,"period_min":109.80485702706,"perigee_km":1216.2286249164,"apogee_km":1219.1332656986,"semimajor_km":7595.8179453075,"source":"CELESTRAK","updated_at":"2026-09-20T09:00:44.555710Z"}}